FW4838 Weather Reports


time (UTC)temp
F
wind
direction
speed
knots
gust
knots
rain 1hr
in
rain 24hr
in
rain mn
in
humidity
%
barometer
mb
20260506113041 51 38 5.2 12.2 0.00 0.00 0.00 82 1013.9
20260506111538 52 350 5.2 11.3 0.00 0.00 0.00 83 1013.9
20260506110042 52 360 7.0 13.0 0.00 0.00 0.00 83 1013.9
20260506104537 52 9 6.1 10.4 0.00 0.00 0.00 83 1013.6
20260506103037 52 36 4.3 9.6 0.00 0.00 0.00 84 1013.4
20260506101539 52 325 3.5 10.4 0.00 0.00 0.00 84 1013.1
20260506100040 52 5 3.5 8.7 0.00 0.00 0.00 84 1012.9
20260506094535 51 28 2.6 7.8 0.00 0.00 0.00 84 1012.5
20260506093040 51 10 2.6 7.8 0.00 0.00 0.00 84 1012.2
20260506091543 51 349 3.5 8.7 0.00 0.00 0.00 84 1012.3
20260506090041 51 360 3.5 7.8 0.00 0.00 0.00 84 1012.4
20260506084539 51 350 3.5 8.7 0.00 0.00 0.00 84 1012.2
20260506083038 52 5 2.6 7.0 0.00 0.00 0.00 84 1012.4
20260506081535 52 11 3.5 10.4 0.00 0.00 0.00 84 1012.3
20260506073044 53 13 3.5 8.7 0.00 0.00 0.00 84 1012.2
20260506071536 53 336 2.6 7.8 0.00 0.00 0.00 84 1012.2
20260506061539 55 352 2.6 5.2 0.00 0.00 0.00 83 1012.1
20260506044546 58 25 6.1 11.3 0.00 0.00 0.00 76 1011.6
20260506043036 60 30 6.1 11.3 0.00 0.00 0.00 74 1011.7
20260506041551 61 15 6.1 11.3 0.00 0.00 0.00 73 1011.5
20260506040041 62 28 7.0 11.3 0.00 0.00 0.00 71 1011.3
20260506034544 63 26 2.6 9.6 0.00 0.00 0.00 69 1011.2
20260506033038 64 346 6.1 11.3 0.00 0.00 0.00 68 1011.1
20260506031536 64 41 4.3 9.6 0.00 0.00 0.00 67 1010.7
20260506030041 65 19 4.3 8.7 0.00 0.00 0.00 66 1010.3
20260506024545 66 44 3.5 8.7 0.00 0.00 0.00 65 1010.2
20260506023039 67 15 4.3 10.4 0.00 0.00 0.00 64 1010.1
20260506021546 67 26 3.5 7.8 0.00 0.00 0.00 64 1009.6
20260506020036 68 21 3.5 7.0 0.00 0.00 0.00 63 1009.1
20260506014541 69 22 4.3 11.3 0.00 0.00 0.00 61 1009.0
20260506013045 71 25 5.2 11.3 0.00 0.00 0.00 61 1008.5
20260506011604 71 44 2.6 7.8 0.00 0.00 0.00 60 1008.2
20260506010037 72 67 4.3 10.4 0.00 0.00 0.00 59 1008.1
20260506004545 73 349 3.5 9.6 0.00 0.00 0.00 58 1008.1
20260506003042 74 49 6.1 12.2 0.00 0.00 0.00 57 1007.2
20260506001543 75 61 5.2 10.4 0.00 0.00 0.00 57 1007.4
20260506000046 76 73 7.8 13.9 0.00 0.00 0.00 55 1006.9
20260505234538 77 28 7.0 13.0 0.00 0.00 0.00 55 1007.4
20260505233041 79 24 8.7 13.9 0.00 0.00 0.00 54 1006.9
20260505231543 80 20 7.8 13.9 0.00 0.00 0.00 54 1007.0
20260505230040 82 30 8.7 16.5 0.00 0.00 0.00 52 1006.8
20260505224539 85 352 9.6 17.4 0.00 0.00 0.00 48 1006.3
20260505223036 89 63 4.3 8.7 0.00 0.00 0.00 39 1005.8
20260505221534 89 45 6.1 8.7 0.00 0.00 0.00 38 1005.7
20260505220053 89 5 4.3 9.6 0.00 0.00 0.00 37 1005.7
20260505214541 90 332 2.6 7.0 0.00 0.00 0.00 36 1006.0
20260505213039 89 21 5.2 12.2 0.00 0.00 0.00 37 1006.1
20260505211539 89 25 5.2 8.7 0.00 0.00 0.00 35 1006.1
20260505210041 90 0 2.6 5.2 0.00 0.00 0.00 35 1006.2
20260505204550 90 219 2.6 7.0 0.00 0.00 0.00 36 1006.4
20260505203039 90 267 4.3 8.7 0.00 0.00 0.00 35 1006.5
20260505201540 89 200 0.9 7.0 0.00 0.00 0.00 39 1006.6
20260505200036 89 185 3.5 8.7 0.00 0.00 0.00 41 1006.9
20260505194535 89 231 1.7 8.7 0.00 0.00 0.00 42 1007.1
20260505193043 88 236 1.7 6.1 0.00 0.00 0.00 43 1007.1
20260505191537 88 277 6.1 13.9 0.00 0.00 0.00 42 1007.5
20260505190035 87 226 3.5 7.8 0.00 0.00 0.00 43 1007.3
20260505184536 87 276 5.2 10.4 0.00 0.00 0.00 46 1007.5
20260505183049 86 221 4.3 10.4 0.00 0.00 0.00 47 1007.6
20260505181540 86 237 2.6 7.8 0.00 0.00 0.00 49 1007.7
20260505180038 84 307 4.3 11.3 0.00 0.00 0.00 50 1007.8
20260505174536 84 227 3.5 8.7 0.00 0.00 0.00 52 1007.9
20260505173033 84 279 4.3 8.7 0.00 0.00 0.00 51 1007.9
20260505171543 84 283 3.5 12.2 0.00 0.00 0.00 53 1007.9
20260505170039 82 225 4.3 10.4 0.00 0.00 0.00 55 1007.8
20260505164551 82 267 4.3 8.7 0.00 0.00 0.00 55 1007.7
20260505163036 81 248 3.5 10.4 0.00 0.00 0.00 60 1007.9
20260505161550 80 202 5.2 10.4 0.00 0.00 0.00 62 1007.6
20260505153046 77 217 4.3 10.4 0.00 0.00 0.00 69 1007.5
20260505151540 76 201 4.3 13.0 0.00 0.00 0.00 72 1007.4
20260505124547 69 241 4.3 10.4 0.00 0.00 0.00 82 1006.4
20260505123038 68 193 5.2 8.7 0.00 0.00 0.00 83 1006.1
20260505121537 68 186 5.2 9.6 0.00 0.00 0.00 82 1006.2
20260505120047 68 211 3.5 12.2 0.00 0.00 0.00 83 1006.0
20260505114540 68 232 5.2 10.4 0.00 0.00 0.00 83 1006.0